| time (UTC) | temp F | wind direction | speed MPH | gust MPH | rain 1hr in | rain 24hr in | rain mn in | humidity % | barometer mb |
| 20260831031147 | 71 | 25 | 0.0 | 0.0 | 0.00 | 0.00 | 0.00 | 91 | 1013.8 |
| 20260831030647 | 71 | 25 | 0.0 | 0.0 | 0.00 | 0.00 | 0.00 | 91 | 1013.7 |
| 20260831030147 | 71 | 25 | 0.0 | 0.0 | 0.00 | 0.00 | 0.00 | 91 | 1013.7 |
| 20260831025647 | 72 | 25 | 0.0 | 0.0 | 0.00 | 0.00 | 0.00 | 91 | 1013.6 |
| 20260831025147 | 72 | 38 | 0.0 | 0.0 | 0.00 | 0.00 | 0.00 | 91 | 1013.6 |
| 20260831024647 | 72 | 101 | 0.0 | 0.0 | 0.00 | 0.00 | 0.00 | 91 | 1013.5 |
| 20260831024147 | 71 | 101 | 0.0 | 0.0 | 0.00 | 0.00 | 0.00 | 91 | 1013.6 |
| 20260831023647 | 71 | 103 | 0.0 | 0.0 | 0.00 | 0.00 | 0.00 | 90 | 1013.5 |
| 20260831023147 | 71 | 103 | 0.0 | 0.0 | 0.00 | 0.00 | 0.00 | 90 | 1013.6 |
| 20260831022647 | 72 | 103 | 0.0 | 0.0 | 0.00 | 0.00 | 0.00 | 90 | 1013.6 |
| 20260831022147 | 72 | 103 | 0.0 | 0.0 | 0.00 | 0.00 | 0.00 | 91 | 1013.6 |
| 20260831021647 | 72 | 103 | 0.0 | 0.0 | 0.00 | 0.00 | 0.00 | 91 | 1013.6 |
| 20260831021147 | 72 | 103 | 0.0 | 0.0 | 0.00 | 0.00 | 0.00 | 91 | 1013.5 |
| 20260831020647 | 72 | 103 | 0.0 | 0.0 | 0.00 | 0.00 | 0.00 | 91 | 1013.5 |
| 20260831020147 | 72 | 103 | 0.0 | 0.0 | 0.00 | 0.00 | 0.00 | 91 | 1013.5 |
| 20260831015647 | 72 | 103 | 0.0 | 0.0 | 0.00 | 0.00 | 0.00 | 91 | 1013.5 |
| 20260831015147 | 72 | 103 | 0.0 | 0.0 | 0.00 | 0.00 | 0.00 | 91 | 1013.5 |
| 20260831014647 | 72 | 103 | 0.0 | 0.0 | 0.00 | 0.00 | 0.00 | 91 | 1013.5 |
| 20260831014147 | 72 | 103 | 1.0 | 1.0 | 0.00 | 0.00 | 0.00 | 91 | 1013.5 |
| 20260831013654 | 71 | 103 | 1.0 | 2.0 | 0.00 | 0.00 | 0.00 | 91 | 1013.5 |
| 20260831013147 | 72 | 103 | 1.0 | 2.0 | 0.00 | 0.00 | 0.00 | 90 | 1013.7 |
| 20260831012647 | 72 | 103 | 2.0 | 4.0 | 0.00 | 0.00 | 0.00 | 90 | 1013.7 |
| 20260831012147 | 72 | 103 | 3.0 | 4.0 | 0.00 | 0.00 | 0.00 | 90 | 1013.6 |
| 20260831011647 | 73 | 99 | 2.0 | 4.0 | 0.00 | 0.00 | 0.00 | 90 | 1013.6 |
| 20260831011147 | 73 | 101 | 0.0 | 3.0 | 0.00 | 0.00 | 0.00 | 90 | 1013.6 |
| 20260831010647 | 74 | 102 | 0.0 | 0.0 | 0.00 | 0.00 | 0.00 | 90 | 1013.6 |
| 20260831010147 | 74 | 102 | 0.0 | 0.0 | 0.00 | 0.00 | 0.00 | 91 | 1013.5 |
| 20260831005647 | 74 | 102 | 0.0 | 0.0 | 0.00 | 0.00 | 0.00 | 90 | 1013.6 |
| 20260831005147 | 74 | 101 | 1.0 | 1.0 | 0.00 | 0.00 | 0.00 | 90 | 1013.7 |
| 20260831004647 | 74 | 101 | 1.0 | 1.0 | 0.00 | 0.00 | 0.00 | 90 | 1013.5 |
| 20260831004147 | 75 | 101 | 1.0 | 2.0 | 0.00 | 0.00 | 0.00 | 91 | 1013.5 |
| 20260831003647 | 75 | 101 | 1.0 | 2.0 | 0.00 | 0.00 | 0.00 | 91 | 1013.5 |
| 20260831003147 | 74 | 101 | 0.0 | 2.0 | 0.00 | 0.00 | 0.00 | 91 | 1013.6 |
| 20260831002647 | 74 | 101 | 0.0 | 0.0 | 0.00 | 0.00 | 0.00 | 91 | 1013.6 |
| 20260831002147 | 73 | 101 | 0.0 | 0.0 | 0.00 | 0.00 | 0.00 | 91 | 1013.6 |
| 20260831001647 | 73 | 101 | 0.0 | 0.0 | 0.00 | 0.00 | 0.00 | 90 | 1013.6 |
| 20260831001147 | 73 | 101 | 0.0 | 0.0 | 0.00 | 0.00 | 0.00 | 90 | 1013.7 |
| 20260831000647 | 73 | 101 | 0.0 | 0.0 | 0.00 | 0.00 | 0.00 | 89 | 1013.7 |
| 20260831000147 | 73 | 101 | 0.0 | 1.0 | 0.00 | 0.00 | 0.00 | 89 | 1013.7 |
| 20260830235647 | 73 | 101 | 0.0 | 0.0 | 0.00 | 0.00 | 0.00 | 89 | 1013.7 |
| 20260830235147 | 73 | 101 | 0.0 | 0.0 | 0.00 | 0.00 | 0.00 | 89 | 1013.7 |
| 20260830234647 | 73 | 101 | 1.0 | 2.0 | 0.00 | 0.00 | 0.00 | 89 | 1013.7 |
| 20260830234147 | 73 | 101 | 1.0 | 3.0 | 0.00 | 0.00 | 0.00 | 89 | 1013.8 |
| 20260830233647 | 74 | 101 | 0.0 | 3.0 | 0.00 | 0.00 | 0.00 | 89 | 1013.8 |
| 20260830233147 | 74 | 137 | 0.0 | 0.0 | 0.00 | 0.00 | 0.00 | 89 | 1013.8 |
| 20260830232647 | 74 | 137 | 0.0 | 0.0 | 0.00 | 0.00 | 0.00 | 88 | 1013.8 |
| 20260830232147 | 75 | 137 | 0.0 | 0.0 | 0.00 | 0.00 | 0.00 | 89 | 1013.9 |
| 20260830231647 | 75 | 137 | 0.0 | 0.0 | 0.00 | 0.00 | 0.00 | 89 | 1013.9 |
| 20260830231147 | 75 | 137 | 0.0 | 0.0 | 0.00 | 0.00 | 0.00 | 89 | 1013.9 |
| 20260830230647 | 75 | 137 | 0.0 | 0.0 | 0.00 | 0.00 | 0.00 | 89 | 1013.9 |
| 20260830230147 | 75 | 137 | 0.0 | 0.0 | 0.00 | 0.00 | 0.00 | 89 | 1013.8 |
| 20260830225647 | 75 | 137 | 0.0 | 0.0 | 0.00 | 0.00 | 0.00 | 89 | 1013.9 |
| 20260830225147 | 75 | 137 | 0.0 | 0.0 | 0.00 | 0.00 | 0.00 | 88 | 1014.0 |
| 20260830224647 | 75 | 137 | 0.0 | 0.0 | 0.00 | 0.00 | 0.00 | 88 | 1013.9 |
| 20260830224147 | 75 | 137 | 0.0 | 0.0 | 0.00 | 0.00 | 0.00 | 89 | 1013.9 |
| 20260830223647 | 75 | 137 | 0.0 | 0.0 | 0.00 | 0.00 | 0.00 | 88 | 1013.9 |
| 20260830223147 | 75 | 137 | 0.0 | 0.0 | 0.00 | 0.00 | 0.00 | 89 | 1013.9 |
| 20260830222647 | 75 | 137 | 1.0 | 1.0 | 0.00 | 0.00 | 0.00 | 88 | 1013.8 |
| 20260830222147 | 75 | 137 | 1.0 | 2.0 | 0.00 | 0.00 | 0.00 | 88 | 1013.8 |
| 20260830221647 | 75 | 137 | 1.0 | 1.0 | 0.00 | 0.00 | 0.00 | 88 | 1013.9 |
| 20260830221147 | 75 | 137 | 2.0 | 3.0 | 0.00 | 0.00 | 0.00 | 88 | 1013.8 |
| 20260830220647 | 75 | 137 | 2.0 | 3.0 | 0.00 | 0.00 | 0.00 | 88 | 1013.9 |
| 20260830220147 | 75 | 137 | 2.0 | 3.0 | 0.00 | 0.00 | 0.00 | 88 | 1013.9 |
| 20260830215647 | 75 | 137 | 3.0 | 3.0 | 0.00 | 0.00 | 0.00 | 88 | 1013.9 |
| 20260830215147 | 76 | 148 | 4.0 | 5.0 | 0.00 | 0.00 | 0.00 | 88 | 1013.9 |
| 20260830214647 | 76 | 161 | 5.0 | 6.0 | 0.00 | 0.00 | 0.00 | 88 | 1013.9 |
| 20260830214147 | 76 | 142 | 5.0 | 8.0 | 0.00 | 0.00 | 0.00 | 88 | 1013.9 |
| 20260830213647 | 76 | 140 | 4.0 | 7.0 | 0.00 | 0.00 | 0.00 | 88 | 1013.9 |
| 20260830213147 | 76 | 137 | 4.0 | 5.0 | 0.00 | 0.00 | 0.00 | 88 | 1013.9 |
| 20260830212647 | 76 | 148 | 3.0 | 5.0 | 0.00 | 0.00 | 0.00 | 87 | 1013.8 |
| 20260830212147 | 77 | 157 | 2.0 | 3.0 | 0.00 | 0.00 | 0.00 | 87 | 1013.8 |
| 20260830211647 | 78 | 157 | 2.0 | 3.0 | 0.00 | 0.00 | 0.00 | 87 | 1013.8 |
| 20260830211147 | 79 | 345 | 2.0 | 3.0 | 0.00 | 0.00 | 0.00 | 86 | 1013.7 |
| 20260830210647 | 79 | 345 | 2.0 | 3.0 | 0.00 | 0.00 | 0.00 | 86 | 1013.7 |
| 20260830210147 | 79 | 329 | 3.0 | 3.0 | 0.00 | 0.00 | 0.00 | 86 | 1013.7 |
| 20260830205647 | 79 | 315 | 3.0 | 4.0 | 0.00 | 0.00 | 0.00 | 86 | 1013.6 |
| 20260830205147 | 79 | 301 | 4.0 | 5.0 | 0.00 | 0.00 | 0.00 | 86 | 1013.7 |
| 20260830204647 | 79 | 296 | 4.0 | 5.0 | 0.00 | 0.00 | 0.00 | 85 | 1013.6 |
| 20260830204147 | 79 | 297 | 4.0 | 6.0 | 0.00 | 0.00 | 0.00 | 85 | 1013.5 |
| 20260830203647 | 79 | 282 | 4.0 | 6.0 | 0.00 | 0.00 | 0.00 | 84 | 1013.5 |
| 20260830203147 | 79 | 285 | 4.0 | 6.0 | 0.00 | 0.00 | 0.00 | 84 | 1013.5 |
| 20260830202647 | 79 | 277 | 3.0 | 4.0 | 0.00 | 0.00 | 0.00 | 83 | 1013.5 |
| 20260830202147 | 79 | 276 | 2.0 | 4.0 | 0.00 | 0.00 | 0.00 | 83 | 1013.4 |
| 20260830201647 | 79 | 269 | 1.0 | 4.0 | 0.00 | 0.00 | 0.00 | 82 | 1013.2 |
| 20260830201147 | 79 | 271 | 0.0 | 3.0 | 0.00 | 0.00 | 0.00 | 81 | 1013.1 |
| 20260830200648 | 79 | 281 | 0.0 | 0.0 | 0.00 | 0.00 | 0.00 | 81 | 1013.2 |
| 20260830200147 | 80 | 306 | 0.0 | 0.0 | 0.00 | 0.00 | 0.00 | 80 | 1013.2 |
| 20260830195647 | 80 | 306 | 0.0 | 0.0 | 0.00 | 0.00 | 0.00 | 80 | 1013.1 |
| 20260830195147 | 79 | 309 | 0.0 | 0.0 | 0.00 | 0.00 | 0.00 | 79 | 1013.0 |
| 20260830194647 | 79 | 310 | 0.0 | 0.0 | 0.00 | 0.00 | 0.00 | 79 | 1013.1 |
| 20260830194148 | 79 | 310 | 0.0 | 0.0 | 0.00 | 0.00 | 0.00 | 79 | 1013.1 |
| 20260830193647 | 79 | 310 | 0.0 | 0.0 | 0.00 | 0.00 | 0.00 | 79 | 1013.2 |
| 20260830193147 | 79 | 310 | 0.0 | 0.0 | 0.00 | 0.00 | 0.00 | 79 | 1013.2 |
| 20260830192648 | 79 | 311 | 0.0 | 0.0 | 0.00 | 0.00 | 0.00 | 79 | 1013.2 |
| 20260830192148 | 79 | 311 | 0.0 | 0.0 | 0.00 | 0.00 | 0.00 | 78 | 1013.2 |
| 20260830191647 | 80 | 311 | 0.0 | 0.0 | 0.00 | 0.00 | 0.00 | 78 | 1013.3 |
| 20260830191147 | 80 | 311 | 0.0 | 0.0 | 0.00 | 0.00 | 0.00 | 77 | 1013.2 |
| 20260830190648 | 81 | 308 | 0.0 | 0.0 | 0.00 | 0.00 | 0.00 | 77 | 1013.3 |
| 20260830190148 | 81 | 308 | 0.0 | 0.0 | 0.00 | 0.00 | 0.00 | 77 | 1013.3 |
| 20260830185648 | 81 | 308 | 0.0 | 0.0 | 0.00 | 0.00 | 0.00 | 77 | 1013.2 |
| 20260830185148 | 81 | 53 | 0.0 | 0.0 | 0.00 | 0.00 | 0.00 | 77 | 1013.3 |
| 20260830184648 | 81 | 102 | 0.0 | 0.0 | 0.00 | 0.00 | 0.00 | 77 | 1013.2 |
| 20260830184148 | 81 | 103 | 0.0 | 0.0 | 0.00 | 0.00 | 0.00 | 76 | 1013.0 |
| 20260830183648 | 81 | 103 | 0.0 | 0.0 | 0.00 | 0.00 | 0.00 | 76 | 1013.0 |
| 20260830183148 | 81 | 103 | 0.0 | 0.0 | 0.00 | 0.00 | 0.00 | 76 | 1013.1 |
| 20260830182648 | 81 | 101 | 0.0 | 0.0 | 0.00 | 0.00 | 0.00 | 75 | 1013.1 |
| 20260830182148 | 81 | 101 | 0.0 | 0.0 | 0.00 | 0.00 | 0.00 | 75 | 1013.2 |
| 20260830181648 | 81 | 101 | 0.0 | 0.0 | 0.00 | 0.00 | 0.00 | 75 | 1013.3 |
| 20260830181148 | 82 | 101 | 0.0 | 0.0 | 0.00 | 0.00 | 0.00 | 75 | 1013.2 |
| 20260830180648 | 82 | 101 | 0.0 | 0.0 | 0.00 | 0.00 | 0.00 | 75 | 1013.2 |
| 20260830180148 | 82 | 101 | 2.0 | 2.0 | 0.00 | 0.00 | 0.00 | 74 | 1013.1 |
| 20260830175648 | 82 | 105 | 3.0 | 3.0 | 0.00 | 0.00 | 0.00 | 74 | 1013.1 |
| 20260830175148 | 83 | 104 | 3.0 | 4.0 | 0.00 | 0.00 | 0.00 | 73 | 1013.1 |
| 20260830174648 | 83 | 123 | 3.0 | 4.0 | 0.00 | 0.00 | 0.00 | 73 | 1013.0 |
| 20260830174148 | 83 | 107 | 2.0 | 4.0 | 0.00 | 0.00 | 0.00 | 72 | 1013.0 |
| 20260830173648 | 84 | 121 | 2.0 | 3.0 | 0.00 | 0.00 | 0.00 | 71 | 1012.9 |
| 20260830173148 | 84 | 116 | 3.0 | 6.0 | 0.00 | 0.00 | 0.00 | 71 | 1012.8 |
| 20260830172648 | 84 | 112 | 4.0 | 6.0 | 0.00 | 0.00 | 0.00 | 70 | 1012.9 |
| 20260830172148 | 85 | 96 | 3.0 | 6.0 | 0.00 | 0.00 | 0.00 | 68 | 1012.8 |
| 20260830171648 | 85 | 103 | 4.0 | 4.0 | 0.00 | 0.00 | 0.00 | 67 | 1012.8 |
| 20260830171148 | 85 | 109 | 4.0 | 6.0 | 0.00 | 0.00 | 0.00 | 67 | 1012.7 |
| 20260830170648 | 85 | 74 | 3.0 | 5.0 | 0.00 | 0.00 | 0.00 | 66 | 1012.7 |
| 20260830170148 | 85 | 73 | 3.0 | 5.0 | 0.00 | 0.00 | 0.00 | 66 | 1012.7 |
| 20260830165648 | 85 | 58 | 3.0 | 4.0 | 0.00 | 0.00 | 0.00 | 67 | 1012.6 |
| 20260830165148 | 85 | 57 | 3.0 | 4.0 | 0.00 | 0.00 | 0.00 | 67 | 1012.7 |
| 20260830164648 | 86 | 56 | 3.0 | 4.0 | 0.00 | 0.00 | 0.00 | 66 | 1012.7 |
| 20260830164148 | 86 | 64 | 2.0 | 4.0 | 0.00 | 0.00 | 0.00 | 66 | 1012.6 |
| 20260830163648 | 86 | 32 | 2.0 | 4.0 | 0.00 | 0.00 | 0.00 | 65 | 1012.7 |
| 20260830163148 | 87 | 74 | 2.0 | 4.0 | 0.00 | 0.00 | 0.00 | 65 | 1012.7 |
| 20260830162648 | 87 | 288 | 2.0 | 3.0 | 0.00 | 0.00 | 0.00 | 64 | 1012.7 |
| 20260830162148 | 87 | 277 | 3.0 | 3.0 | 0.00 | 0.00 | 0.00 | 64 | 1012.7 |
| 20260830161648 | 87 | 284 | 5.0 | 6.0 | 0.00 | 0.00 | 0.00 | 64 | 1012.6 |
| 20260830161148 | 88 | 298 | 6.0 | 11.0 | 0.00 | 0.00 | 0.00 | 63 | 1012.6 |
| 20260830160648 | 88 | 292 | 6.0 | 9.0 | 0.00 | 0.00 | 0.00 | 62 | 1012.5 |
| 20260830160148 | 88 | 280 | 8.0 | 12.0 | 0.00 | 0.00 | 0.00 | 63 | 1012.6 |
| 20260830155648 | 88 | 289 | 8.0 | 11.0 | 0.00 | 0.00 | 0.00 | 62 | 1012.5 |
| 20260830155148 | 88 | 293 | 8.0 | 12.0 | 0.00 | 0.00 | 0.00 | 61 | 1012.6 |
| 20260830154648 | 89 | 274 | 8.0 | 11.0 | 0.00 | 0.00 | 0.00 | 61 | 1012.6 |
| 20260830154148 | 89 | 260 | 7.0 | 11.0 | 0.00 | 0.00 | 0.00 | 60 | 1012.5 |
| 20260830153648 | 90 | 275 | 6.0 | 11.0 | 0.00 | 0.00 | 0.00 | 59 | 1012.5 |
| 20260830153148 | 90 | 308 | 7.0 | 11.0 | 0.00 | 0.00 | 0.00 | 58 | 1012.5 |
| 20260830152648 | 90 | 271 | 7.0 | 11.0 | 0.00 | 0.00 | 0.00 | 57 | 1012.5 |
| 20260830152148 | 91 | 277 | 7.0 | 10.0 | 0.00 | 0.00 | 0.00 | 54 | 1012.5 |
| 20260830151648 | 90 | 287 | 7.0 | 9.0 | 0.00 | 0.00 | 0.00 | 55 | 1012.4 |
| 20260830151148 | 91 | 273 | 8.0 | 12.0 | 0.00 | 0.00 | 0.00 | 56 | 1012.4 |
| 20260830150648 | 91 | 276 | 8.0 | 12.0 | 0.00 | 0.00 | 0.00 | 55 | 1012.4 |
| 20260830150148 | 91 | 271 | 9.0 | 13.0 | 0.00 | 0.00 | 0.00 | 52 | 1012.5 |
| 20260830145648 | 91 | 281 | 8.0 | 14.0 | 0.00 | 0.00 | 0.00 | 50 | 1012.6 |
| 20260830145202 | 92 | 262 | 7.0 | 12.0 | 0.00 | 0.00 | 0.00 | 49 | 1012.6 |
| 20260830144648 | 92 | 244 | 7.0 | 11.0 | 0.00 | 0.00 | 0.00 | 49 | 1012.5 |
| 20260830144148 | 92 | 285 | 8.0 | 12.0 | 0.00 | 0.00 | 0.00 | 50 | 1012.6 |
| 20260830143648 | 93 | 271 | 8.0 | 12.0 | 0.00 | 0.00 | 0.00 | 47 | 1012.7 |
| 20260830143148 | 93 | 265 | 9.0 | 13.0 | 0.00 | 0.00 | 0.00 | 46 | 1012.6 |
| 20260830142648 | 93 | 292 | 8.0 | 12.0 | 0.00 | 0.00 | 0.00 | 46 | 1012.6 |
| 20260830142148 | 93 | 286 | 7.0 | 12.0 | 0.00 | 0.00 | 0.00 | 47 | 1012.6 |
| 20260830141648 | 94 | 264 | 7.0 | 12.0 | 0.00 | 0.00 | 0.00 | 47 | 1012.5 |
| 20260830141148 | 94 | 279 | 7.0 | 10.0 | 0.00 | 0.00 | 0.00 | 48 | 1012.5 |
| 20260830140648 | 94 | 256 | 9.0 | 12.0 | 0.00 | 0.00 | 0.00 | 46 | 1012.5 |
| 20260830140148 | 94 | 266 | 8.0 | 12.0 | 0.00 | 0.00 | 0.00 | 46 | 1012.5 |
| 20260830135648 | 95 | 284 | 8.0 | 11.0 | 0.00 | 0.00 | 0.00 | 45 | 1012.5 |
| 20260830135148 | 95 | 241 | 7.0 | 12.0 | 0.00 | 0.00 | 0.00 | 46 | 1012.5 |
| 20260830134648 | 94 | 242 | 7.0 | 11.0 | 0.00 | 0.00 | 0.00 | 44 | 1012.5 |
| 20260830134148 | 94 | 264 | 8.0 | 11.0 | 0.00 | 0.00 | 0.00 | 45 | 1012.6 |
| 20260830133648 | 94 | 265 | 8.0 | 11.0 | 0.00 | 0.00 | 0.00 | 47 | 1012.5 |
| 20260830133148 | 94 | 251 | 8.0 | 13.0 | 0.00 | 0.00 | 0.00 | 47 | 1012.5 |
| 20260830132648 | 94 | 272 | 9.0 | 12.0 | 0.00 | 0.00 | 0.00 | 47 | 1012.6 |
| 20260830132148 | 94 | 275 | 9.0 | 12.0 | 0.00 | 0.00 | 0.00 | 47 | 1012.6 |
| 20260830131648 | 94 | 272 | 9.0 | 12.0 | 0.00 | 0.00 | 0.00 | 49 | 1012.8 |
| 20260830131148 | 94 | 273 | 9.0 | 14.0 | 0.00 | 0.00 | 0.00 | 46 | 1012.8 |
| 20260830130648 | 94 | 261 | 9.0 | 13.0 | 0.00 | 0.00 | 0.00 | 46 | 1012.9 |
| 20260830130148 | 94 | 283 | 8.0 | 16.0 | 0.00 | 0.00 | 0.00 | 46 | 1013.0 |
| 20260830125648 | 95 | 284 | 6.0 | 10.0 | 0.00 | 0.00 | 0.00 | 46 | 1013.0 |
| 20260830125148 | 95 | 235 | 7.0 | 11.0 | 0.00 | 0.00 | 0.00 | 44 | 1013.0 |
| 20260830124648 | 95 | 297 | 7.0 | 13.0 | 0.00 | 0.00 | 0.00 | 45 | 1013.1 |
| 20260830124148 | 94 | 274 | 8.0 | 13.0 | 0.00 | 0.00 | 0.00 | 47 | 1012.8 |
| 20260830123648 | 94 | 300 | 9.0 | 13.0 | 0.00 | 0.00 | 0.00 | 48 | 1013.0 |
| 20260830123148 | 94 | 269 | 9.0 | 13.0 | 0.00 | 0.00 | 0.00 | 46 | 1013.1 |
| 20260830122648 | 95 | 289 | 8.0 | 13.0 | 0.00 | 0.00 | 0.00 | 44 | 1013.3 |
| 20260830122148 | 95 | 252 | 7.0 | 13.0 | 0.00 | 0.00 | 0.00 | 45 | 1013.3 |
| 20260830121648 | 95 | 251 | 6.0 | 12.0 | 0.00 | 0.00 | 0.00 | 48 | 1013.3 |
| 20260830121148 | 95 | 44 | 6.0 | 12.0 | 0.00 | 0.00 | 0.00 | 50 | 1013.3 |
| 20260830120648 | 94 | 322 | 6.0 | 9.0 | 0.00 | 0.00 | 0.00 | 49 | 1013.4 |
| 20260830120148 | 94 | 318 | 6.0 | 10.0 | 0.00 | 0.00 | 0.00 | 51 | 1013.4 |
| 20260830115648 | 94 | 350 | 6.0 | 9.0 | 0.00 | 0.00 | 0.00 | 50 | 1013.4 |
| 20260830115148 | 93 | 304 | 5.0 | 8.0 | 0.00 | 0.00 | 0.00 | 54 | 1013.5 |
| 20260830114648 | 93 | 32 | 5.0 | 9.0 | 0.00 | 0.00 | 0.00 | 54 | 1013.6 |
| 20260830114148 | 93 | 346 | 5.0 | 9.0 | 0.00 | 0.00 | 0.00 | 52 | 1013.5 |
| 20260830113648 | 93 | 341 | 5.0 | 9.0 | 0.00 | 0.00 | 0.00 | 55 | 1013.4 |
| 20260830113148 | 93 | 329 | 5.0 | 9.0 | 0.00 | 0.00 | 0.00 | 53 | 1013.4 |
| 20260830112648 | 93 | 332 | 5.0 | 10.0 | 0.00 | 0.00 | 0.00 | 55 | 1013.6 |
| 20260830112148 | 93 | 311 | 5.0 | 9.0 | 0.00 | 0.00 | 0.00 | 55 | 1013.6 |
| 20260830111648 | 93 | 340 | 4.0 | 9.0 | 0.00 | 0.00 | 0.00 | 54 | 1013.8 |
| 20260830111148 | 93 | 336 | 3.0 | 9.0 | 0.00 | 0.00 | 0.00 | 53 | 1013.8 |
| 20260830110648 | 93 | 345 | 4.0 | 8.0 | 0.00 | 0.00 | 0.00 | 55 | 1013.8 |
| 20260830110148 | 93 | 333 | 4.0 | 10.0 | 0.00 | 0.00 | 0.00 | 54 | 1013.9 |
| 20260830105648 | 93 | 318 | 3.0 | 6.0 | 0.00 | 0.00 | 0.00 | 56 | 1013.8 |
| 20260830105148 | 93 | 9 | 4.0 | 7.0 | 0.00 | 0.00 | 0.00 | 55 | 1013.9 |
| 20260830104648 | 93 | 318 | 4.0 | 7.0 | 0.00 | 0.00 | 0.00 | 55 | 1014.0 |
| 20260830104148 | 92 | 336 | 5.0 | 4.0 | 0.00 | 0.00 | 0.00 | 56 | 1014.0 |
| 20260830103648 | 92 | 298 | 4.0 | 8.0 | 0.00 | 0.00 | 0.00 | 55 | 1013.9 |
| 20260830103149 | 92 | 341 | 4.0 | 4.0 | 0.00 | 0.00 | 0.00 | 53 | 1014.0 |
| 20260830102648 | 92 | 280 | 4.0 | 8.0 | 0.00 | 0.00 | 0.00 | 57 | 1014.0 |
| 20260830102148 | 92 | 336 | 5.0 | 9.0 | 0.00 | 0.00 | 0.00 | 55 | 1014.0 |
| 20260830101649 | 92 | 274 | 4.0 | 10.0 | 0.00 | 0.00 | 0.00 | 53 | 1013.9 |
| 20260830101149 | 92 | 267 | 3.0 | 7.0 | 0.00 | 0.00 | 0.00 | 52 | 1014.3 |
| 20260830100649 | 92 | 290 | 1.0 | 5.0 | 0.00 | 0.00 | 0.00 | 52 | 1014.3 |
| 20260830100149 | 92 | 309 | 1.0 | 4.0 | 0.00 | 0.00 | 0.00 | 52 | 1014.4 |
| 20260830095649 | 92 | 68 | 2.0 | 3.0 | 0.00 | 0.00 | 0.00 | 53 | 1014.3 |
| 20260830095149 | 92 | 65 | 2.0 | 3.0 | 0.00 | 0.00 | 0.00 | 52 | 1014.3 |
| 20260830094649 | 92 | 63 | 1.0 | 3.0 | 0.00 | 0.00 | 0.00 | 52 | 1014.4 |
| 20260830094149 | 92 | 19 | 1.0 | 3.0 | 0.00 | 0.00 | 0.00 | 52 | 1014.4 |
| 20260830093649 | 92 | 355 | 1.0 | 3.0 | 0.00 | 0.00 | 0.00 | 52 | 1014.4 |
| 20260830093149 | 93 | 38 | 1.0 | 3.0 | 0.00 | 0.00 | 0.00 | 53 | 1014.4 |
| 20260830092649 | 93 | 47 | 0.0 | 3.0 | 0.00 | 0.00 | 0.00 | 52 | 1014.5 |
| 20260830092149 | 92 | 69 | 0.0 | 2.0 | 0.00 | 0.00 | 0.00 | 52 | 1014.6 |
| 20260830091649 | 91 | 69 | 1.0 | 2.0 | 0.00 | 0.00 | 0.00 | 53 | 1014.7 |
| 20260830091149 | 91 | 69 | 0.0 | 3.0 | 0.00 | 0.00 | 0.00 | 54 | 1014.8 |
| 20260830090649 | 91 | 74 | 0.0 | 2.0 | 0.00 | 0.00 | 0.00 | 54 | 1014.9 |
| 20260830090149 | 90 | 75 | 0.0 | 0.0 | 0.00 | 0.00 | 0.00 | 54 | 1014.8 |
| 20260830085649 | 90 | 74 | 1.0 | 1.0 | 0.00 | 0.00 | 0.00 | 54 | 1014.9 |
| 20260830085149 | 90 | 75 | 2.0 | 5.0 | 0.00 | 0.00 | 0.00 | 54 | 1014.8 |
| 20260830084649 | 90 | 64 | 1.0 | 5.0 | 0.00 | 0.00 | 0.00 | 54 | 1014.8 |
| 20260830084149 | 90 | 104 | 1.0 | 2.0 | 0.00 | 0.00 | 0.00 | 59 | 1015.0 |
| 20260830083649 | 90 | 338 | 0.0 | 3.0 | 0.00 | 0.00 | 0.00 | 57 | 1015.1 |
| 20260830083149 | 90 | 44 | 0.0 | 0.0 | 0.00 | 0.00 | 0.00 | 59 | 1015.1 |
| 20260830082649 | 89 | 44 | 1.0 | 1.0 | 0.00 | 0.00 | 0.00 | 59 | 1015.1 |
| 20260830082149 | 88 | 42 | 1.0 | 4.0 | 0.00 | 0.00 | 0.00 | 60 | 1015.3 |
| 20260830081649 | 88 | 50 | 1.0 | 4.0 | 0.00 | 0.00 | 0.00 | 60 | 1015.3 |
| 20260830081149 | 87 | 41 | 1.0 | 3.0 | 0.00 | 0.00 | 0.00 | 61 | 1015.3 |
| 20260830080649 | 87 | 39 | 1.0 | 4.0 | 0.00 | 0.00 | 0.00 | 62 | 1015.3 |
| 20260830080149 | 86 | 296 | 2.0 | 4.0 | 0.00 | 0.00 | 0.00 | 61 | 1015.4 |
| 20260830075649 | 85 | 342 | 3.0 | 5.0 | 0.00 | 0.00 | 0.00 | 62 | 1015.3 |
| 20260830075149 | 85 | 344 | 3.0 | 6.0 | 0.00 | 0.00 | 0.00 | 61 | 1015.3 |
| 20260830074649 | 85 | 336 | 3.0 | 6.0 | 0.00 | 0.00 | 0.00 | 61 | 1015.3 |
| 20260830074149 | 85 | 330 | 3.0 | 7.0 | 0.00 | 0.00 | 0.00 | 61 | 1015.2 |
| 20260830073649 | 85 | 321 | 3.0 | 9.0 | 0.00 | 0.00 | 0.00 | 62 | 1015.4 |
| 20260830073149 | 84 | 325 | 4.0 | 6.0 | 0.00 | 0.00 | 0.00 | 61 | 1015.4 |
| 20260830072649 | 84 | 346 | 4.0 | 8.0 | 0.00 | 0.00 | 0.00 | 61 | 1015.3 |
| 20260830072149 | 84 | 325 | 4.0 | 6.0 | 0.00 | 0.00 | 0.00 | 61 | 1015.4 |
| 20260830071649 | 84 | 0 | 3.0 | 6.0 | 0.00 | 0.00 | 0.00 | 62 | 1015.4 |
| 20260830071149 | 84 | 339 | 3.0 | 5.0 | 0.00 | 0.00 | 0.00 | 62 | 1015.4 |
| 20260830070649 | 84 | 355 | 2.0 | 5.0 | 0.00 | 0.00 | 0.00 | 64 | 1015.4 |
| 20260830070149 | 84 | 322 | 2.0 | 4.0 | 0.00 | 0.00 | 0.00 | 65 | 1015.3 |
| 20260830065649 | 84 | 323 | 3.0 | 4.0 | 0.00 | 0.00 | 0.00 | 64 | 1015.4 |
| 20260830065149 | 83 | 34 | 1.0 | 5.0 | 0.00 | 0.00 | 0.00 | 66 | 1015.4 |
| 20260830064649 | 83 | 24 | 0.0 | 2.0 | 0.00 | 0.00 | 0.00 | 68 | 1015.5 |
| 20260830064149 | 82 | 25 | 0.0 | 0.0 | 0.00 | 0.00 | 0.00 | 70 | 1015.4 |
| 20260830063649 | 82 | 31 | 0.0 | 0.0 | 0.00 | 0.00 | 0.00 | 72 | 1015.5 |
| 20260830063149 | 81 | 23 | 0.0 | 0.0 | 0.00 | 0.00 | 0.00 | 75 | 1015.5 |
| 20260830062649 | 80 | 22 | 0.0 | 0.0 | 0.00 | 0.00 | 0.00 | 76 | 1015.5 |
| 20260830062149 | 79 | 22 | 0.0 | 0.0 | 0.00 | 0.00 | 0.00 | 78 | 1015.5 |
| 20260830061649 | 78 | 336 | 0.0 | 2.0 | 0.00 | 0.00 | 0.00 | 80 | 1015.5 |
| 20260830061149 | 78 | 336 | 0.0 | 2.0 | 0.00 | 0.00 | 0.00 | 80 | 1015.5 |
| 20260830060649 | 78 | 321 | 0.0 | 0.0 | 0.00 | 0.00 | 0.00 | 80 | 1015.6 |
| 20260830060149 | 78 | 344 | 1.0 | 2.0 | 0.00 | 0.00 | 0.00 | 80 | 1015.5 |
| 20260830055649 | 78 | 344 | 1.0 | 3.0 | 0.00 | 0.00 | 0.00 | 80 | 1015.5 |
| 20260830055149 | 78 | 344 | 0.0 | 1.0 | 0.00 | 0.00 | 0.00 | 80 | 1015.4 |
| 20260830054649 | 77 | 344 | 0.0 | 2.0 | 0.00 | 0.00 | 0.00 | 80 | 1015.4 |
| 20260830054149 | 77 | 344 | 0.0 | 3.0 | 0.00 | 0.00 | 0.00 | 79 | 1015.5 |
| 20260830053649 | 77 | 344 | 0.0 | 0.0 | 0.00 | 0.00 | 0.00 | 79 | 1015.5 |
| 20260830053149 | 77 | 344 | 1.0 | 3.0 | 0.00 | 0.00 | 0.00 | 79 | 1015.5 |
| 20260830052649 | 77 | 323 | 1.0 | 3.0 | 0.00 | 0.00 | 0.00 | 79 | 1015.5 |
| 20260830052149 | 76 | 319 | 0.0 | 3.0 | 0.00 | 0.00 | 0.00 | 79 | 1015.4 |
| 20260830051649 | 76 | 338 | 1.0 | 1.0 | 0.00 | 0.00 | 0.00 | 79 | 1015.5 |
| 20260830051149 | 76 | 19 | 1.0 | 2.0 | 0.00 | 0.00 | 0.00 | 80 | 1015.4 |
| 20260830050649 | 76 | 19 | 1.0 | 2.0 | 0.00 | 0.00 | 0.00 | 80 | 1015.4 |
| 20260830045649 | 75 | 57 | 1.0 | 4.0 | 0.00 | 0.00 | 0.00 | 82 | 1015.3 |
| 20260830045149 | 75 | 355 | 0.0 | 1.0 | 0.00 | 0.00 | 0.00 | 83 | 1015.4 |
| 20260830044649 | 75 | 348 | 1.0 | 3.0 | 0.00 | 0.00 | 0.00 | 84 | 1015.3 |
| 20260830044149 | 75 | 337 | 3.0 | 4.0 | 0.00 | 0.00 | 0.00 | 85 | 1015.2 |
| 20260830043649 | 75 | 312 | 3.0 | 5.0 | 0.00 | 0.00 | 0.00 | 86 | 1015.3 |
| 20260830043149 | 74 | 289 | 3.0 | 4.0 | 0.00 | 0.00 | 0.00 | 87 | 1015.3 |
| 20260830042649 | 74 | 303 | 3.0 | 3.0 | 0.00 | 0.00 | 0.00 | 88 | 1015.2 |
| 20260830042149 | 74 | 304 | 3.0 | 4.0 | 0.00 | 0.00 | 0.00 | 89 | 1015.2 |
| 20260830041649 | 74 | 306 | 2.0 | 4.0 | 0.00 | 0.00 | 0.00 | 90 | 1015.2 |
| 20260830041149 | 74 | 319 | 2.0 | 3.0 | 0.00 | 0.00 | 0.00 | 90 | 1015.1 |
| 20260830040649 | 74 | 320 | 2.0 | 4.0 | 0.00 | 0.00 | 0.00 | 90 | 1015.1 |
| 20260830040149 | 74 | 318 | 2.0 | 3.0 | 0.00 | 0.00 | 0.00 | 90 | 1015.0 |
| 20260830035649 | 74 | 319 | 2.0 | 2.0 | 0.00 | 0.00 | 0.00 | 91 | 1015.0 |
| 20260830035149 | 74 | 319 | 2.0 | 4.0 | 0.00 | 0.00 | 0.00 | 91 | 1014.9 |
| 20260830034649 | 75 | 319 | 3.0 | 4.0 | 0.00 | 0.00 | 0.00 | 91 | 1015.0 |
| 20260830034149 | 75 | 322 | 3.0 | 4.0 | 0.00 | 0.00 | 0.00 | 92 | 1015.0 |
| 20260830033649 | 75 | 306 | 3.0 | 4.0 | 0.00 | 0.00 | 0.00 | 92 | 1014.9 |
| 20260830033149 | 75 | 288 | 3.0 | 4.0 | 0.00 | 0.00 | 0.00 | 92 | 1015.0 |
| 20260830032649 | 75 | 306 | 2.0 | 3.0 | 0.00 | 0.00 | 0.00 | 92 | 1014.9 |
| 20260830032149 | 75 | 306 | 2.0 | 3.0 | 0.00 | 0.00 | 0.00 | 93 | 1014.8 |
| 20260830031649 | 76 | 306 | 1.0 | 2.0 | 0.00 | 0.00 | 0.00 | 93 | 1014.8 |